Hourly Data Report for October 12, 2014

All times are specified in Local Standard Time (LST). Add 1 hour to adjust for Daylight Saving Time where and when it is observed.

OTTAWA INTL A
ONTARIO

45°19'00.000" N
75°40'00.000" W
114.90 m
6106001
71628
YOW

Download Data

Hourly Data (October 2014)
Hourly Data Report for October 12, 2014
Temp Definition
°C
Dew Point Temp Definition
°C
Rel Hum Definition
%
Wind Dir Definition
10's deg

Wind Spd Definition
km/h
Visibility Definition
km
Stn Press Definition
kPa
Hmdx Definition


Wind Chill Definition


Weather Definition


TIME
00:00 Legend Double Dagger 4.0 3.0 93 24 8 24.1 100.84     LegendNANA
01:00 Legend Double Dagger 2.4 2.0 97 25 8 24.1 100.87     Clear
02:00 Legend Double Dagger 1.1 0.8 98 24 5 24.1 100.90     LegendNANA
03:00 Legend Double Dagger 1.8 1.7 99 22 5 24.1 100.93     LegendNANA
04:00 Legend Double Dagger 0.9 0.8 99 23 8 24.1 100.99     Clear
05:00 Legend Double Dagger 0.5 0.5 100 27 4 24.1 101.02     LegendNANA
06:00 Legend Double Dagger 0.1 0.0 99 22 7 24.1 101.08     LegendNANA
07:00 Legend Double Dagger -0.4 -0.4 100 21 3 3.2 101.13   -1 Fog
08:00 Legend Double Dagger 3.4 3.3 99 19 6 8.1 101.19     Fog
09:00 Legend Double Dagger 7.2 4.9 85 22 5 24.1 101.21     LegendNANA
10:00 Legend Double Dagger 10.3 4.1 65 23 8 24.1 101.21     Clear
11:00 Legend Double Dagger 11.6 1.9 51 23 13 24.1 101.21     LegendNANA
12:00 Legend Double Dagger 12.7 2.0 48 22 13 24.1 101.14     LegendNANA
13:00 Legend Double Dagger 13.8 0.9 41 25 12 24.1 101.05     Mainly Clear
14:00 Legend Double Dagger 14.3 1.6 42 20 12 24.1 100.99     LegendNANA
15:00 Legend Double Dagger 14.1 2.1 44 24 10 24.1 100.96     LegendNANA
16:00 Legend Double Dagger 13.7 2.7 47 19 8 24.1 100.92     Clear
17:00 Legend Double Dagger 11.6 1.6 50 21 10 24.1 100.91     LegendNANA
18:00 Legend Double Dagger 10.4 1.5 54 19 8 24.1 100.90     LegendNANA
19:00 Legend Double Dagger 8.8 1.5 60 17 9 24.1 100.93     Clear
20:00 Legend Double Dagger 6.8 1.7 70 16 9 24.1 100.96     LegendNANA
21:00 Legend Double Dagger 7.8 1.9 66 17 5 24.1 100.96     LegendNANA
22:00 Legend Double Dagger 4.3 1.7 83 16 7 24.1 100.95     Clear
23:00 Legend Double Dagger 5.2 1.9 79 15 9 24.1 100.95     LegendNANA

Notes on Data Quality.

Legend

  • E = Estimated
  • M = Missing
  • NA = Not Available
  • ‡ = Partner data that is not subject to review by the National Climate Archives
Date modified: